Location:  
MeteoStar


Sort by weather type Sort by elevation Sort by visibility Sort from west to east north Sort from north to south Alphabetically Sort from strongest wind speed Sort from lowest to highest pressure Sort from highest to lowest dew point temperature Sort coolest temperatures to warmest Sort warm temperatures to coolest
 Metric

Current Observations for United Kingdom sorted by weather type

South Uist Range16:00ZLight Showers56 52101007SSW 21 Gusting to 27 5632
Stornoway15:50ZLight Showers55 55201006.1SSW 13 5529
Aberdeen / Dyce15:50ZLight Rain54 5041009.1SSE 5 53213
Coventry Airport 15:50ZShowers nearby70 63201012.0W 9 70269
Camborne16:00ZCloudy60 54201017.2W 11 60285
Larkhill16:00ZCloudy68 54201013.7W 12 68433
Mildenhall Royal Air Force Base15:58ZCloudy69 62121010.7WNW 11 Gusting to 18 6932
Lakenheath Royal Air Force Base15:40ZCloudy68 61251010.4WNW 12 6832
London / Heathrow Airport15:50ZCloudy72 57201012.1W 10 7278
London City Airport15:50ZCloudy73 59201012.1W 15 7316
Luton Airport 15:50ZCloudy68 61151012.0W 15 68524
Marham15:50ZMostly Cloudy70 59151010.1W 15 7075
Barkston Heath Royal Air Force Base 15:50ZMostly CloudyN/A N/A20WNW 14 367
Cranwell15:50ZMostly Cloudy70 55201010.0NW 13 70219
Topcliffe Royal Air Force Base 15:50ZMostly Cloudy66 55201010.1WNW 13 6691
Waddington15:50ZMostly Cloudy66 55201010.0W 13 66223
Leconfield15:50ZMostly Cloudy66 59301009.1WNW 11 6619
Linton-On-Ouse15:50ZMostly Cloudy66 54301010.1W 11 6652
Wittering15:50ZMostly Cloudy68 57201010.0WNW 13 68275
Coningsby Royal Air Force Base15:40ZMostly Cloudy68 54201010.1WNW 18 6822
Northolt15:50ZMostly Cloudy72 59201012.1W 11 72124
Middle Wallop15:50ZMostly Cloudy68 55201013.0W 12 68298
Odiham15:50ZMostly Cloudy72 55201013.0W 12 72403
Benson15:50ZMostly Cloudy70 57121012.1W 9 70206
Exeter Airport15:50ZMostly Cloudy66 54451015.1WNW 9 6698
Stansted Airport15:50ZMostly Cloudy70 61451012.0W 8 70347
Norwich Weather Centre15:50ZMostly Cloudy68 59451009.1W 13 6845
Cambridge15:50ZMostly Cloudy70 59451011.1W 11 7049
Lossiemouth15:50ZMostly Cloudy59 48451007.1ESE 6 5942
Boulmer15:50ZMostly Cloudy61 55181009.1NNE 11 6175
Kinloss15:50ZMostly Cloudy63 50251007.1SE 1 6322
Tiree15:50ZMostly Cloudy55 52101009.1SW 13 5539
Dundee / Riverside15:50ZMostly Cloudy59 5541008.1E 8 5913
Benbecula15:50ZMostly Cloudy55 5241007.1SSW 21 5519
Glasgow Airport15:50ZMostly Cloudy61 5241010.1WSW 11 6126
Inverness / Dalcross15:50ZMostly Cloudy63 5241008.1WSW 12 6329
Valley15:50ZMostly Cloudy61 52251013.1SSW 8 613
Shawbury15:50ZMostly Cloudy66 57201012.1NNW 8 66249
Spadeadam15:50ZMostly Cloudy63 52251008.9W 13 631066
East Midlands15:50ZMostly Cloudy66 55251012.0W 13 66308
Hawarden15:50ZMostly Cloudy64 54201013.1NW 10 6432
Humberside15:50ZMostly Cloudy70 57201010.1W 15 70101
Southend-On-Sea 15:50ZMostly Cloudy73 57201011.1W 11 7349
London / Gatwick Airport15:50ZMostly Cloudy72 59201012.0W 10 72203
Biggin Hill 15:50ZMostly Cloudy70 59201012.9W 9 70600
Shoreham Airport15:50ZMostly Cloudy70 61201013.1WSW 16 706
Southampton / Weather Centre15:50ZMostly Cloudy68 54131013.1W 9 6829
Bournemouth Airport15:50ZMostly Cloudy72 57131014.1WNW 11 7236
Scilly; Saint MaryS15:50ZMostly Cloudy63 55121018.1W 12 63101
Liverpool Airport 15:50ZMostly Cloudy63 54151012.1WNW 13 6385
Bristol / Lulsgate 15:50ZMostly Cloudy64 59151014.0WSW 13 64620
Yeovilton15:50ZMostly Cloudy66 57151014.1NW 11 6675
St Athan Royal Air Force Base15:50ZMostly Cloudy64 57111014.1W 16 64164
Culdrose15:50ZMostly Cloudy61 52111017.1W 10 61255
Boscombe Down15:50ZMostly Cloudy68 55251014.0W 16 68406
Manchester Airport15:50ZMostly Cloudy63 52201012.1W 12 63226
Staverton Private 15:50ZMostly Cloudy70 59201013.1W 8 7095
Birmingham / Airport15:50ZMostly Cloudy68 57201012.0WNW 9 68324
Eglinton / Londonderr15:50ZMostly Cloudy61 52201010.1WSW 14 6129
Belfast / Aldergrove Airport15:50ZMostly Cloudy61 50201011.1WSW 8 61265
Eskdalemuir16:00ZPartly Cloudy64 53251009.5W 7 64793
Leeming15:50ZPartly Cloudy68 55251009.1W 12 68131
Brize Norton15:50ZPartly Cloudy68 57191012.0W 9 68288
Wattisham15:50ZPartly Cloudy68 57251011.0WNW 13 68285
Cranfield15:50ZPartly Cloudy70 61451012.0W 9 70364
Leuchars15:50ZPartly Cloudy59 54131008.1E 11 5939
Prestwick Airport15:50ZPartly Cloudy61 5041011.1W 10 6165
Edinburgh Airport15:50ZPartly Cloudy64 5241009.1WSW 11 64134
Wick15:50ZPartly Cloudy57 54131007.1SE 8 57127
Kirkwall Airport15:50ZPartly Cloudy61 48251007.1W 8 6168
Newcastle 15:50ZPartly Cloudy61 57251009.1E 7 61265
Blackpool Airport15:50ZPartly Cloudy63 54201012.1W 11 6332
Carlisle15:50ZPartly Cloudy64 54201010.1WSW 13 6485
Farnborough15:50ZPartly Cloudy73 57161013.0W 10 Gusting to 21 73213
Guernsey Airport15:50ZPartly Cloudy68 61201017.0W 14 68334
Cardiff-Wales Airport15:50ZPartly Cloudy64 59151014.1W 15 64219
Belfast / Harbour15:50ZPartly Cloudy63 48201011.1W 8 6316
Glenanne16:00ZClear61 49201011.2W 6 61528
Aboyne16:00ZClear57 5791007.7E 9 57459
Lerwick16:00ZClear55 40201006.7W 10 55269
Fairford Royal Air Force Base15:58ZClear71 59251012.5W 13 71285
Scatsa / Shetland Island15:50ZClear57 4541007.1W 9 5772
Sumburgh Cape 15:50ZClear55 48251007.1WSW 5 5516
Pembrey Sands15:50ZClear66 57111014.1W 16 669
Tees-Side15:50ZClear70 54251009.1WNW 11 70121
Isle Of Man / Ronaldsway Airport15:50ZClear61 50251012.1SW 10 6155
Leeds And Bradford15:50ZClear63 52201011.0WNW 15 63682
Lydd Airport 15:50ZClear68 61201012.1SW 23 689
Jersey Airport15:50ZClear66 59201017.1WNW 11 66275
Alderney / Channel Island15:50ZClear64 59131016.1W 11 64232

Atlantic
Tropical Watch